TimeCST,TemperatureF,Dew PointF,Humidity,Sea Level PressureIn,VisibilityMPH,Wind Direction,Wind SpeedMPH,Gust SpeedMPH,PrecipitationIn,Events,Conditions,WindDirDegrees,DateUTC
12:15 AM,35.6,32.0,87,30.18,10.0,NNW,12.7,19.6,N/A,,Mostly Cloudy,340,2013-01-17 06:15:00
12:35 AM,33.8,32.0,93,30.19,10.0,NNW,16.1,21.9,N/A,,Overcast,340,2013-01-17 06:35:00
12:55 AM,32.0,32.0,100,30.20,10.0,NNW,17.3,20.7,N/A,,Overcast,340,2013-01-17 06:55:00
1:15 AM,32.0,28.4,87,30.21,10.0,NNW,13.8,-,N/A,,Mostly Cloudy,340,2013-01-17 07:15:00
1:35 AM,30.2,28.4,93,30.22,10.0,North,13.8,-,N/A,,Partly Cloudy,350,2013-01-17 07:35:00
1:55 AM,30.2,26.6,86,30.23,10.0,North,12.7,-,N/A,,Clear,350,2013-01-17 07:55:00
2:15 AM,28.4,24.8,86,30.24,10.0,North,8.1,-,N/A,,Clear,350,2013-01-17 08:15:00
2:35 AM,28.4,24.8,86,30.25,10.0,NNW,10.4,-,N/A,,Clear,340,2013-01-17 08:35:00
2:55 AM,26.6,24.8,93,30.26,10.0,North,10.4,-,N/A,,Clear,350,2013-01-17 08:55:00
3:15 AM,26.6,24.8,93,30.27,10.0,North,9.2,-,N/A,,Clear,350,2013-01-17 09:15:00
3:35 AM,26.6,24.8,93,30.27,10.0,NNW,8.1,-,N/A,,Clear,340,2013-01-17 09:35:00
3:55 AM,24.8,23.0,93,30.27,10.0,NNW,8.1,-,N/A,,Clear,340,2013-01-17 09:55:00
4:15 AM,24.8,23.0,93,30.29,10.0,NNW,9.2,-,N/A,,Clear,340,2013-01-17 10:15:00
4:35 AM,24.8,21.2,86,30.30,10.0,NNW,8.1,-,N/A,,Clear,340,2013-01-17 10:35:00
4:55 AM,24.8,21.2,86,30.31,10.0,NNW,9.2,-,N/A,,Clear,340,2013-01-17 10:55:00
5:15 AM,23.0,21.2,93,30.31,10.0,North,8.1,-,N/A,,Clear,350,2013-01-17 11:15:00
5:35 AM,23.0,21.2,93,30.32,10.0,North,8.1,-,N/A,,Clear,350,2013-01-17 11:35:00
5:55 AM,23.0,21.2,93,30.34,10.0,NNW,6.9,-,N/A,,Clear,340,2013-01-17 11:55:00
6:15 AM,21.2,21.2,100,30.34,10.0,NNW,6.9,-,N/A,,Clear,340,2013-01-17 12:15:00
6:35 AM,21.2,21.2,100,30.37,10.0,NNW,9.2,-,N/A,,Partly Cloudy,330,2013-01-17 12:35:00
6:55 AM,21.2,21.2,100,30.38,10.0,NNW,9.2,-,N/A,,Partly Cloudy,330,2013-01-17 12:55:00
7:15 AM,21.2,21.2,100,30.38,10.0,NNW,8.1,-,N/A,,Clear,330,2013-01-17 13:15:00
7:35 AM,19.4,19.4,100,30.40,10.0,NW,6.9,-,N/A,,Clear,320,2013-01-17 13:35:00
7:55 AM,19.4,19.4,100,30.40,10.0,NNW,6.9,-,N/A,,Clear,340,2013-01-17 13:55:00
8:15 AM,21.2,19.4,93,30.40,10.0,NNW,5.8,-,N/A,,Clear,330,2013-01-17 14:15:00
8:55 AM,23.0,17.6,80,30.42,10.0,NNW,6.9,-,N/A,,Clear,340,2013-01-17 14:55:00
9:15 AM,23.0,17.6,80,30.44,10.0,NW,8.1,-,N/A,,Clear,320,2013-01-17 15:15:00
9:55 AM,24.8,17.6,74,30.45,10.0,NW,6.9,-,N/A,,Clear,320,2013-01-17 15:55:00
10:15 AM,26.6,15.8,64,30.46,10.0,NNW,5.8,-,N/A,,Clear,330,2013-01-17 16:15:00
10:35 AM,26.6,15.8,64,30.45,10.0,NW,4.6,-,N/A,,Clear,310,2013-01-17 16:35:00
10:55 AM,28.4,15.8,59,30.44,10.0,Calm,Calm,-,N/A,,Clear,0,2013-01-17 16:55:00
11:15 AM,30.2,14.0,51,30.44,10.0,WNW,5.8,-,N/A,,Clear,290,2013-01-17 17:15:00
11:35 AM,32.0,12.2,44,30.43,10.0,WNW,9.2,-,N/A,,Clear,290,2013-01-17 17:35:00
11:55 AM,32.0,12.2,44,30.43,10.0,WNW,8.1,-,N/A,,Clear,290,2013-01-17 17:55:00
12:15 PM,32.0,14.0,48,30.42,10.0,NNW,8.1,-,N/A,,Clear,340,2013-01-17 18:15:00
12:35 PM,33.8,14.0,44,30.41,10.0,NW,6.9,-,N/A,,Clear,320,2013-01-17 18:35:00
12:55 PM,35.6,15.8,44,30.40,10.0,NW,3.5,-,N/A,,Clear,320,2013-01-17 18:55:00
1:15 PM,35.6,17.6,48,30.40,10.0,NNW,10.4,-,N/A,,Clear,340,2013-01-17 19:15:00
1:35 PM,37.4,15.8,41,30.39,10.0,North,5.8,-,N/A,,Clear,350,2013-01-17 19:35:00
1:55 PM,37.4,15.8,41,30.39,10.0,NW,6.9,-,N/A,,Clear,320,2013-01-17 19:55:00
2:15 PM,37.4,17.6,45,30.39,10.0,NW,6.9,-,N/A,,Clear,310,2013-01-17 20:15:00
2:35 PM,37.4,17.6,45,30.40,10.0,WNW,9.2,-,N/A,,Clear,300,2013-01-17 20:35:00
2:55 PM,37.4,17.6,45,30.40,10.0,NW,6.9,-,N/A,,Clear,320,2013-01-17 20:55:00
3:15 PM,37.4,17.6,45,30.41,10.0,NNW,6.9,-,N/A,,Clear,330,2013-01-17 21:15:00
3:35 PM,37.4,17.6,45,30.41,10.0,NNW,6.9,-,N/A,,Clear,330,2013-01-17 21:35:00
3:55 PM,35.6,17.6,48,30.41,10.0,NW,6.9,-,N/A,,Clear,320,2013-01-17 21:55:00
4:35 PM,35.6,17.6,48,30.41,10.0,Calm,Calm,-,N/A,,Clear,0,2013-01-17 22:35:00
4:55 PM,35.6,17.6,48,30.42,10.0,Calm,Calm,-,N/A,,Clear,0,2013-01-17 22:55:00
5:15 PM,33.8,17.6,52,30.42,10.0,Calm,Calm,-,N/A,,Clear,0,2013-01-17 23:15:00
5:35 PM,32.0,15.8,51,30.42,10.0,Calm,Calm,-,N/A,,Clear,0,2013-01-17 23:35:00
5:55 PM,32.0,15.8,51,30.43,10.0,Calm,Calm,-,N/A,,Clear,0,2013-01-17 23:55:00
6:15 PM,32.0,15.8,51,30.42,10.0,Calm,Calm,-,N/A,,Clear,0,2013-01-18 00:15:00
6:35 PM,32.0,19.4,60,30.43,10.0,Calm,Calm,-,N/A,,Clear,0,2013-01-18 00:35:00
6:55 PM,28.4,17.6,64,30.42,10.0,Calm,Calm,-,N/A,,Clear,0,2013-01-18 00:55:00
7:15 PM,26.6,17.6,69,30.42,10.0,SSE,4.6,-,N/A,,Clear,160,2013-01-18 01:15:00
7:35 PM,28.4,17.6,64,30.42,10.0,South,4.6,-,N/A,,Clear,170,2013-01-18 01:35:00
8:15 PM,26.6,17.6,69,30.42,10.0,South,4.6,-,N/A,,Clear,170,2013-01-18 02:15:00
8:35 PM,26.6,17.6,69,30.41,10.0,SSE,5.8,-,N/A,,Clear,160,2013-01-18 02:35:00
8:55 PM,26.6,17.6,69,30.42,10.0,SSE,4.6,-,N/A,,Clear,160,2013-01-18 02:55:00
9:15 PM,24.8,17.6,74,30.41,10.0,South,6.9,-,N/A,,Clear,170,2013-01-18 03:15:00
9:35 PM,24.8,19.4,80,30.41,10.0,South,6.9,-,N/A,,Clear,170,2013-01-18 03:35:00
9:55 PM,24.8,17.6,74,30.40,10.0,South,5.8,-,N/A,,Clear,170,2013-01-18 03:55:00
11:15 PM,24.8,17.6,74,30.40,10.0,South,5.8,-,N/A,,Clear,170,2013-01-18 05:15:00
11:35 PM,24.8,17.6,74,30.40,10.0,South,5.8,-,N/A,,Clear,170,2013-01-18 05:35:00
11:55 PM,24.8,19.4,80,30.39,10.0,South,5.8,-,N/A,,Clear,170,2013-01-18 05:55:00